STARLINK-11522 [DTC] (63141 NORAD) Tracking and Keplerian Element Data

This shows tracking and keplerian element data for the satellite.

Feedback or suggestion? Click here.




ElementValue
Catalog63141
NameSTARLINK-11522 [DTC]
Epoch Orbit4679
Epoch Day354.20686737
Epoch Year2025
RAAN9.6228
Inclination42.9996
Eccentricity0.0001201
Argument of Perigee227.9213
Mean Anonmoly132.1553
Mean Motion15.70906312
Decay Rate0.00198136
L11 63141U 25043K 25354.20686737 .00198136 00000+0 15069-2 0 9997
L22 63141 42.9996 9.6228 0001201 227.9213 132.1553 15.70906312 46793



Live tracking and technical data element details for STARLINK-11522 [DTC] (NORAD 63141). STARLINK-11522 [DTC] can be tracked NOW for your location showing map with azimuth and elevation plus other details from your city location.







IsCatalogInMostPopularTable: catalog: 63141, numindb: 2
Update: records affected: 1



GetName: 63141 STARLINK-11522 [DTC]

Hit Count: updated at: Sun, 08 Feb 2026 08:14:20 GMT